Home > Weather > Chalon-sur-Saône > Past weeks

Flag for France Past Weather in Chalon-sur-Saône, Burgundy, France — Yesterday and Last 2 Weeks

Now
70 °F

Passing clouds.


Feels Like: 70 °F
Forecast: 62 / 74 °F
Wind: 9 mph from South

Location: Dole Tavaux

Current Time: Aug 28, 2016 at 4:34:05 AM

Latest Report: Aug 28, 2016 at 4:00 AM


Visibility: N/A

Pressure: 30.04 "Hg

Humidity: 64%

Dew Point: 57 °F

Location of Chalon-sur-SaôneLocation

Past Weather in Chalon-sur-Saône — Graph

°F

Chalon-sur-Saône Temperature Yesterday

Maximum temperature yesterday: 91 °F (at 3:30 PM)
Minimum temperature yesterday: 63 °F (at 6:30 AM)
Average temperature yesterday: 77 °F

High & Low Weather Summary for the Past Weeks

 TemperatureHumidityPressure
High95 °F (Aug 26, 5:00 PM)100% (Aug 13, 4:30 AM)30.39 "Hg (Aug 13, 4:30 AM)
Low48 °F (Aug 22, 6:30 AM)26% (Aug 15, 5:30 PM)29.80 "Hg (Aug 17, 5:30 PM)
Average71 °F71%30.07 "Hg
* Reported Aug 13 3:00 AM — Aug 28 3:00 AM, Chalon-sur-Saône, Weather by CustomWeather, © 2016

Note: Actual official high and low records may vary slightly from our data, if they occured in-between our weather recording intervals... More about our weather records

Advertising

Chalon-sur-Saône Weather History for the Previous 24 Hours

Scroll right to see more
 ConditionsComfort  
Time TempWeatherWind HumidityBarometerVisibility
3:00 AM
Sun, Aug 28
70 °FPassing clouds.6 mph69%30.04 "HgN/A
2:30 AM70 °FClear.2 mph73%30.04 "Hg10 mi
2:00 AM70 °FClear.2 mph73%30.04 "Hg10 mi
1:30 AM70 °FPassing clouds.5 mph73%30.04 "HgN/A
1:00 AM72 °FPassing clouds.5 mph73%30.04 "HgN/A
12:30 AM72 °FPassing clouds.3 mph73%30.04 "HgN/A
12:00 AM72 °FClear.3 mph78%30.04 "Hg10 mi
11:30 PM
Sat, Aug 27
72 °FClear.5 mph78%30.04 "Hg10 mi
11:00 PM73 °FPassing clouds.3 mph74%30.04 "HgN/A
10:30 PM73 °FClear.3 mph78%30.04 "Hg10 mi
10:00 PM75 °FSunny.3 mph69%30.04 "Hg10 mi
9:30 PM79 °FSunny.2 mph61%30.01 "Hg10 mi
9:00 PM79 °FSunny.6 mph61%30.01 "Hg10 mi
8:30 PM82 °FSunny.3 mph55%30.01 "Hg10 mi
8:00 PM84 °FPassing clouds.5 mph51%30.01 "HgN/A
7:30 PM88 °FPassing clouds.6 mph46%30.01 "HgN/A
7:00 PM90 °FPassing clouds.6 mph41%30.01 "HgN/A
6:30 PM90 °FPassing clouds.7 mph41%30.01 "HgN/A
6:00 PM90 °FPassing clouds.6 mph41%30.01 "HgN/A
5:30 PM91 °FPassing clouds.10 mph36%30.01 "HgN/A
5:00 PM91 °FPassing clouds.8 mph38%30.01 "HgN/A
4:30 PM91 °FPassing clouds.8 mph36%30.01 "HgN/A
4:00 PM91 °FPassing clouds.9 mph36%30.04 "HgN/A
3:30 PM91 °FPassing clouds.8 mph36%30.04 "HgN/A
3:00 PM90 °FPassing clouds.9 mph41%30.04 "HgN/A
2:30 PM90 °FPassing clouds.8 mph38%30.04 "HgN/A
2:00 PM90 °FPassing clouds.8 mph41%30.04 "HgN/A
1:30 PM88 °FPassing clouds.8 mph40%30.07 "HgN/A
1:00 PM88 °FPassing clouds.8 mph40%30.07 "HgN/A
12:30 PM86 °FPassing clouds.12 mph43%30.07 "HgN/A
12:00 PM84 °FPassing clouds.12 mph45%30.07 "HgN/A
11:30 AM82 °FPassing clouds.10 mph48%30.09 "HgN/A
11:00 AM81 °FPassing clouds.10 mph51%30.09 "HgN/A
10:30 AM79 °FPassing clouds.8 mph54%30.09 "HgN/A
10:00 AM77 °FPassing clouds.7 mph65%30.09 "HgN/A
9:30 AM75 °FPassing clouds.6 mph65%30.09 "HgN/A
9:00 AM73 °FSunny.2 mph74%30.09 "Hg10 mi
8:30 AM70 °FClear.2 mph83%30.07 "Hg10 mi
8:00 AM68 °FClear.2 mph88%30.07 "Hg10 mi
7:30 AM64 °FClear.3 mph94%30.07 "Hg10 mi
7:00 AM63 °FClear.3 mph100%30.07 "Hg10 mi
6:30 AM63 °FClear.5 mph100%30.04 "Hg10 mi
6:00 AM64 °FClear.2 mph94%30.04 "Hg10 mi
5:30 AM64 °FClear.3 mph94%30.04 "Hg10 mi
5:00 AM64 °FClear.5 mph94%30.04 "Hg10 mi
4:30 AM64 °FClear.5 mph94%30.04 "Hg10 mi
4:00 AM66 °FClear.2 mph88%30.04 "Hg10 mi
Weather by CustomWeather, © 2016

See weather overviewHow to use our weather pages